Location: Highland Meadows Observing Site
(48.4428°N, 114.5461°W)
Time: 00:58:36
(UTC-06:00)

Gurwin Techsat 1B - Visible Passes

Search period start: 01 October 2016 00:00
Search period end: 11 October 2016 00:00
Orbit: 811 x 815 km, 98.6° (Epoch: 30 September)

Date Brightness Start Highest point End Pass type
(mag) Time Alt. Az. Time Alt. Az. Time Alt. Az.
01 Oct 11.2 02:43:20 10° NE 02:44:39 15° NE 02:44:39 15° NE visible
01 Oct 9.7 04:22:31 10° N 04:25:51 38° N 04:25:51 38° N visible
01 Oct 10.6 06:04:54 10° NNW 06:06:41 12° NW 06:07:03 12° NW visible
02 Oct 9.9 03:59:39 10° NNE 04:02:41 35° NNE 04:02:41 35° NNE visible
02 Oct 10.3 05:40:57 10° NNW 05:43:52 17° NW 05:43:52 17° NW visible
03 Oct 10.4 03:36:55 10° NNE 03:39:30 29° NNE 03:39:30 29° NNE visible
03 Oct 10.1 05:17:34 10° N 05:20:42 23° NW 05:20:42 23° NW visible
04 Oct 10.8 03:14:18 10° NNE 03:16:19 21° NE 03:16:19 21° NE visible
04 Oct 9.9 04:54:24 10° N 04:57:30 28° NNW 04:57:30 28° NNW visible
05 Oct 11.2 02:51:54 10° NE 02:53:08 15° NE 02:53:08 15° NE visible
05 Oct 9.9 04:31:23 10° N 04:34:20 32° N 04:34:20 32° N visible
06 Oct 11.5 02:29:52 10° NE 02:29:57 10° NE 02:29:57 10° NE visible
06 Oct 10.1 04:08:29 10° NNE 04:11:09 31° N 04:11:09 31° N visible
06 Oct 10.5 05:50:06 10° NNW 05:52:22 14° NW 05:52:22 14° NW visible
07 Oct 10.5 03:45:41 10° NNE 03:47:59 26° NNE 03:47:59 26° NNE visible
07 Oct 10.3 05:26:34 10° N 05:29:11 19° NW 05:29:11 19° NW visible
08 Oct 10.9 03:23:01 10° NNE 03:24:48 20° NE 03:24:48 20° NE visible
08 Oct 10.1 05:03:20 10° N 05:06:00 24° NNW 05:06:00 24° NNW visible
09 Oct 11.2 03:00:32 10° NNE 03:01:36 15° NE 03:01:36 15° NE visible
09 Oct 10.1 04:40:16 10° N 04:42:49 27° NNW 04:42:49 27° NNW visible
10 Oct 11.6 02:38:19 10° NE 02:38:26 10° NE 02:38:26 10° NE visible
10 Oct 10.3 04:17:19 10° N 04:19:38 26° N 04:19:38 26° N visible
10 Oct 10.6 05:59:23 10° NNW 06:00:50 12° NW 06:00:50 12° NW visible
